Regional Weather Roundup
Issued by NWS

Home | Current Version | Previous Version | Graphics & Text | Print | Product List | Glossary On
Versions: 1 2 3 4 5 6 7 8 9 10 11 12 13 14 15 16 17 18 19 20 21 22 23 24 25 26 27 28 29 30 31 32 33 34 35 36 37 38 39 40 41 42 43 44 45 46 47 48 49 50
000
ASUS43 KMKX 310911
RWRWI

WISCONSIN REGIONAL WEATHER ROUNDUP
NATIONAL WEATHER SERVICE MILWAUKEE/SULLIVAN WI
400 AM CDT FRI JUL 31 2015

NOTE: "FAIR" INDICATES FEW OR NO CLOUDS BELOW 12,000 FEET WITH NO
SIGNIFICANT WEATHER AND/OR OBSTRUCTIONS TO VISIBILITY.

WIZ001-002-006>008-014>016-023>028-311000-
NORTHWEST WISCONSIN

CITY           SKY/WX    TMP DP  RH WIND       PRES   REMARKS
SUPERIOR ARPT  PTCLDY    65  55  70 W8        29.92S
ASHLAND        PTCLDY    60  56  86 SW6       29.91S
HAYWARD        MOCLDY    61  56  83 S3        29.95S
SIREN          PTCLDY    63  55  74 W7        29.98S
CUMBERLAND     CLEAR     61  54  77 W6        29.99S
RICE LAKE      CLEAR     62  56  82 W5        30.00R
CHETEK         CLEAR     67  56  67 W7        29.97S
LADYSMITH      PTCLDY    64  56  77 W6        29.97F
EAU CLAIRE     CLEAR     62  57  83 W8        29.97F
MENOMONIE      CLEAR     66  58  76 W6        30.00R
NEW RICHMOND   CLEAR     63  56  78 W7        30.02R
OSCEOLA        CLEAR     66  56  71 W8        30.03S
$$

WIZ003>005-009-010-017-018-311000-
NORTH CENTRAL WISCONSIN

CITY           SKY/WX    TMP DP  RH WIND       PRES   REMARKS
MANITOWISH WTR CLEAR     59  56  88 W5        29.92F
ARBOR VITAE    CLEAR     62  56  80 W5        29.93S
WOODRUFF       CLEAR     62  56  80 W5        29.93S
RHINELANDER    CLEAR     59  55  87 W8        29.94F
EAGLE RIVER    CLEAR     54  53  99 W6        29.92S
LAND O LAKES   CLEAR     58  55  87 W5        29.92S
PHILLIPS       PTCLDY    61  56  84 CALM      29.94S
TOMAHAWK       CLEAR     60  55  84 W5        29.95S
MEDFORD        CLEAR     60  56  88 W6        29.97S
MERRILL        NOT AVBL
$$

WIZ029-030-035-036-043>047-311000-
CENTRAL WISCONSIN

CITY           SKY/WX    TMP DP  RH WIND       PRES   REMARKS
WAUSAU         CLEAR     65  57  75 NW9       29.94S
MOSINEE        CLEAR     61  57  88 W7        29.97F
MARSHFIELD     CLEAR     62  55  77 W6        29.98S
STEVENS POINT  CLEAR     64  56  75 W6        29.97S
WAUPACA        CLEAR     67  59  75 W7        29.96S
WAUTOMA        CLEAR     59  57  92 CALM      29.98F
WISC RAPIDS    CLEAR     64  57  78 W7        29.99S
CAMP DOUGLAS   PTCLDY    63  63  99 W3        29.99S
$$

WIZ011>013-019>022-031-037>040-048>050-311000-
NORTHEAST WISCONSIN

CITY           SKY/WX    TMP DP  RH WIND       PRES   REMARKS
ANTIGO         CLEAR     58  56  92 W5        29.95S
SHAWANO        NOT AVBL
OCONTO         CLEAR     64  59  85 W6        29.90S
STURGEON BAY   CLEAR     66  55  68 W7        29.92S
GREEN BAY      CLEAR     66  58  75 W7        29.93S
MANITOWOC      CLEAR     68  60  75 MISG      29.94S
APPLETON       CLEAR     64  55  72 SW8       29.96S
CLINTONVILLE   CLEAR     64  55  72 W7        29.93F
OSHKOSH        CLEAR     67  57  70 VRB5      29.96S
$$

WIZ032>034-041-042-053>061-311000-
SOUTHWEST WISCONSIN

CITY           SKY/WX    TMP DP  RH WIND       PRES   REMARKS
LA CROSSE      CLEAR     67  61  81 S5        30.00F
SPARTA         PTCLDY    56  53  92 CALM      30.01F
VIROQUA        CLEAR     62  60  95 W7        30.04S
BOSCOBEL       CLOUDY    62  60  93 SW3       30.02F
PRAIRIE DU CHI PTCLDY    69  62  78 NW3       30.02S
PLATTEVILLE    PTCLDY    64  61  92 SW7       30.03F
$$

WIZ056-057-062-063-064-067-068-311000-
SOUTH CENTRAL WISCONSIN

CITY           SKY/WX    TMP DP  RH WIND       PRES   REMARKS
REEDSBURG      PTCLDY    62  58  86 CALM      30.00F
BARABOO/DELLS  PTCLDY    64  56  74 CALM      30.00F
LONE ROCK      CLEAR     58  56  93 CALM      30.02F
MINERAL POINT  PTCLDY    64  61  88 CALM      30.03F
MADISON        PTCLDY    69  57  65 CALM      30.00F
MIDDLETON      MOCLDY    61  58  90 CALM      30.02S
WATERTOWN      CLEAR     60  60 100 CALM      30.00S
MONROE         CLEAR     66  59  77 SW12      30.03F
JANESVILLE     CLEAR     63  59  88 CALM      30.01F
$$

WIZ051-052-058>065-066-070>072-311000-
SOUTHEAST WISCONSIN

CITY           SKY/WX    TMP DP  RH WIND       PRES   REMARKS
MILWAUKEE      CLEAR     70  56  61 W7        29.99S
WAUKESHA       CLEAR     64  55  72 W8        30.01F
MILWAUKEE/TIMM CLEAR     66  54  63 SW6       30.00F
RACINE         CLEAR     67  56  67 W7        30.01F
BURLINGTON     CLEAR     64  55  75 W3        30.01F
KENOSHA        CLEAR     65  57  75 W8        30.01F
FOND DU LAC    CLEAR     64  57  78 SW6       29.97F
SHEBOYGAN      CLEAR     65  58  78 W9        29.96S
WEST BEND      CLEAR     66  54  63 W6        29.98F
JUNEAU         PTCLDY    60  56  87 CALM      30.00F
$$

LSZ147-162-311000-
LAKE SUPERIOR

STATION/POSITION TIME  TEMP    WIND        PRES    WAVE
                       AIR SEA DIR/SP/G            HT/PER
                 (UTC) (F)     (DEG/KT/KT) (MB)    (FT/S)
W MID LAKE BUOY  0850   56 53  250/  8/ 10 1010.1S   1
DEVILS ISLAND    0900   62     240/ 15/ 17 1011.4F
PORT WING        0840   67     230/  6/ 10 1013.2R
SAXON HARBOR     0840   66                 1011.9R
$$

LMZ867-665-643>646-311000-
LAKE MICHIGAN

STATION/POSITION TIME  TEMP    WIND        PRES    WAVE
                       AIR SEA DIR/SP/G            HT/PER
                 (UTC) (F)     (DEG/KT/KT) (MB)    (FT/S)
CHAMBERS ISLAND  0800   66     220/  6/ 13 1011.9S
S GREEN BAY BUOY 0900   65 68  260/ 12/ 14 1013.7F
N MID LAKE BUOY  0850   69 68  260/ 14/ 16 1010.5S   2/ 4
NORTHPORT PIER   0800   69     270/  6/ 11 1011.5S
SISTER BAY       0829   70     300/ 17/ 20   N/A
ALGOMA LAKESHORE 0812          260/  4/  8   N/A
KEWAUNEE LAKESHO 0800   68     290/  4/  6 1012.4F
SHEBOYGAN LAKESH 0900   70     250/ 11/ 12 1014.1F
PORT WASHINGTON  0800   70     270/  7/  9 1015.6S
ATWATER BUOY     0900   71 62  250/ 12/ 16 1016.6F
MILWAUKEE LAKESH 0800   73     270/  7/  9   N/A
KENOSHA   LAKESH 0900   72     270/  9/ 14 1015.6F
$$

TC  - TEMPERATURE IN CELSIUS
VSB - VISIBILITY IN STATUTE MILES
WCI - WIND CHILL INDEX
HX  - HEAT INDEX



USA.gov is the U.S. government's official web portal to all federal, state and local government web resources and services.